Home > Weather > Northeim > Past weeks

Flag for Germany Past Weather in Northeim, Lower Saxony, Germany — Yesterday and Last 2 Weeks

Now
64 °F

Light rain. Mostly cloudy.


Feels Like: 64 °F
Forecast: 54 / 70 °F
Wind: 5 mph from Northwest

Location: Kassel / Calden

Current Time: Jun 25, 2016 at 12:31:26 PM

Latest Report: Jun 25, 2016 at 11:50 AM


Visibility: 4 mi

Pressure: 29.92 "Hg

Humidity: 100%

Dew Point: 64 °F

Location of NortheimLocation

Past Weather in Northeim — Graph

°F

Northeim Temperature Yesterday

Maximum temperature yesterday: 84 °F (at 2:50 PM)
Minimum temperature yesterday: 63 °F (at 3:50 PM)
Average temperature yesterday: 75 °F

High & Low Weather Summary for the Past Weeks

 TemperatureHumidityPressure
High90 °F (Jun 23, 3:50 PM)100% (Jun 12, 7:50 AM)30.24 "Hg (Jun 12, 7:50 AM)
Low50 °F (Jun 20, 7:20 AM)32% (Jun 10, 12:20 PM)29.47 "Hg (Jun 14, 7:20 PM)
Average65 °F72%29.89 "Hg
* Reported Jun 10 11:20 AM — Jun 25 11:20 AM, Northeim, Weather by CustomWeather, © 2016

Note: Actual official high and low records may vary slightly from our data, if they occured in-between our weather recording intervals... More about our weather records

Advertising

Northeim Weather History for the Previous 24 Hours

Scroll right to see more
 ConditionsComfort  
Time TempWeatherWind HumidityBarometerVisibility
11:20 AM
Sat, Jun 25
64 °FLight rain. Mostly cloudy.12 mph100%29.92 "Hg4 mi
10:50 AM64 °FLow clouds.7 mph100%29.95 "Hg4 mi
10:20 AM64 °FLow clouds.7 mph100%29.95 "Hg4 mi
9:50 AM64 °FLow clouds.6 mph100%29.95 "Hg4 mi
9:20 AM66 °FLow clouds.10 mph100%29.95 "Hg4 mi
8:50 AM64 °FMostly cloudy.6 mph100%29.95 "Hg4 mi
8:20 AM64 °FFog.8 mph100%29.95 "Hg3 mi
7:50 AM64 °FLight rain. Fog.10 mph100%29.92 "Hg3 mi
7:20 AM64 °FLight rain. Fog.9 mph100%29.92 "Hg2 mi
9:20 PM
Fri, Jun 24
72 °FPassing clouds.3 mph94%30.04 "Hg6 mi
8:50 PM72 °FPassing clouds.5 mph100%30.04 "HgN/A
8:20 PM72 °FPassing clouds.7 mph88%30.04 "HgN/A
7:50 PM73 °FPassing clouds.5 mph78%30.04 "HgN/A
7:20 PM73 °FPassing clouds.3 mph74%30.04 "HgN/A
6:50 PM75 °FPassing clouds.7 mph65%30.04 "HgN/A
6:20 PM73 °FPassing clouds.7 mph74%30.04 "HgN/A
5:50 PM73 °FScattered clouds.5 mph74%30.07 "HgN/A
5:20 PM72 °FThundershowers. Scattered clouds.2 mph73%30.07 "HgN/A
4:50 PM66 °FThundershowers. Scattered clouds.3 mph100%30.04 "HgN/A
4:20 PM64 °FThunderstorms. Scattered clouds.10 mph100%30.07 "HgN/A
3:50 PM63 °FStrong thunderstorms. Broken clouds.16 mph100%30.04 "Hg1 mi
3:33 PM75 °FThunderstorms. Broken clouds.29 mph61%30.07 "Hg4 mi
2:50 PM84 °FThunderstorms. Scattered clouds.6 mph62%30.01 "HgN/A
2:20 PM82 °FScattered clouds.6 mph66%30.04 "HgN/A
1:50 PM82 °FScattered clouds.7 mph62%30.04 "HgN/A
1:20 PM81 °FScattered clouds.5 mph74%30.04 "HgN/A
12:50 PM82 °FPartly sunny.2 mph58%30.04 "HgN/A
12:20 PM79 °FLight rain. Scattered clouds.5 mph74%30.04 "HgN/A
Weather by CustomWeather, © 2016

See weather overviewHow to use our weather pages